Swansboro, NC

5:46 PM EDT on April 24, 2017 (GMT -0400)
Bogue McAlf

Weather History for KNJM - November, 2012

Change the Weather History Date:

Friday, November 23, 2012

  Actual Average (KNKT) Record (KNKT)
Temperature  
Mean Temperature 50 °F -  
Max Temperature 62 °F 62 °F 73 °F (1998)
Min Temperature 39 °F 41 °F 27 °F (2000)
Degree Days  
Heating Degree Days 14    
Moisture  
Dew Point 42 °F    
Average Humidity 73    
Maximum Humidity 93    
Minimum Humidity 35    
Precipitation  
Precipitation 0.00 in - - ()
Sea Level Pressure  
Sea Level Pressure 30.03 in    
Wind  
Wind Speed 6 mph (West)    
Max Wind Speed 9 mph    
Max Gust Speed -    
Visibility 10 miles    
Events      
Averages and records for this station are not official NWS values.
T = Trace of Precipitation, MM = Missing Value Source: NWS Daily Summary

Daily Weather History Graph

Daily Weather History Graph

Search for Another Location

Airport or City:

Trip Planner

Search our weather history database for the weather conditions in past years. The results will help you decide how hot, cold, wet, or windy it might be!

Date:

Astronomy

Nov. 23, 2012 Rise Set
Actual Time 6:50 AM EST 4:59 PM EST
Civil Twilight 6:22 AM EST 5:26 PM EST
Nautical Twilight 5:51 AM EST 5:57 PM EST
Astronomical Twilight 5:21 AM EST 6:27 PM EST
Moon 2:04 PM EST (11/23) 2:16 AM EST (11/23)
Length of Visible Light 11h 03m
Length of Day
10h 08m
Waxing Gibbous, 79% of the Moon is Illuminated
Nov 23
Waxing Gibbous
Nov 28
Full
Dec 6
Last Quarter
Dec 13
New
Dec 20
First Quarter

Hourly Weather History & Observations

Time (EST) Temp. Windchill Dew Point Humidity Pressure Visibility Wind Dir Wind Speed Gust Speed Precip Events Conditions
12:57 AM 46.0 °F 43.1 °F 42.1 °F 86% 30.14 in 10.0 mi NNW 5.8 mph - N/A   Clear
1:57 AM 45.0 °F 42.6 °F 42.1 °F 90% 30.13 in 10.0 mi NNW 4.6 mph - N/A   Clear
2:57 AM 45.0 °F 41.8 °F 41.0 °F 86% 30.13 in 10.0 mi NNW 5.8 mph - N/A   Clear
3:57 AM 43.0 °F 40.3 °F 41.0 °F 93% 30.12 in 9.0 mi NNW 4.6 mph - N/A   Clear
4:57 AM 42.1 °F 40.2 °F 39.9 °F 92% 30.12 in 8.0 mi NNW 3.5 mph - N/A   Clear
5:57 AM 41.0 °F 37.1 °F 39.0 °F 93% 30.13 in 8.0 mi NW 5.8 mph - N/A   Clear
6:57 AM 39.0 °F 34.8 °F 37.0 °F 93% 30.14 in 7.0 mi NW 5.8 mph - N/A   Clear
7:57 AM 42.1 °F 39.2 °F 39.9 °F 92% 30.15 in 9.0 mi NW 4.6 mph - N/A   Clear
10:57 AM 55.9 °F - 39.0 °F 53% 30.11 in 10.0 mi WNW 4.6 mph - N/A   Clear
11:57 AM 59.0 °F - 35.1 °F 41% 30.06 in 10.0 mi West 5.8 mph - N/A   Clear
12:57 PM 61.0 °F - 33.1 °F 35% 30.03 in 10.0 mi Variable 4.6 mph - N/A   Clear
1:57 PM 62.1 °F - 37.0 °F 39% 30.00 in 10.0 mi SSW 4.6 mph - N/A   Clear
2:57 PM 60.1 °F - 43.0 °F 53% 29.98 in 10.0 mi SW 6.9 mph - N/A   Clear
3:57 PM 57.9 °F - 44.1 °F 60% 29.97 in 10.0 mi SW 8.1 mph - N/A   Clear
4:57 PM 55.0 °F - 46.0 °F 72% 29.96 in 10.0 mi SW 5.8 mph - N/A   Clear
5:57 PM 55.0 °F - 48.0 °F 77% 29.95 in 10.0 mi SW 5.8 mph - N/A   Clear
6:57 PM 55.0 °F - 48.9 °F 80% 29.95 in 10.0 mi SW 6.9 mph - N/A   Clear
7:57 PM 55.9 °F - 48.0 °F 75% 29.94 in 10.0 mi WSW 6.9 mph - N/A   Clear
8:57 PM 55.9 °F - 44.1 °F 64% 29.95 in 10.0 mi WSW 9.2 mph - N/A   Clear
9:57 PM 54.0 °F - 46.0 °F 75% 29.93 in 10.0 mi SW 5.8 mph - N/A   Clear
10:57 PM 54.0 °F - 48.9 °F 83% 29.91 in 10.0 mi SW 6.9 mph - N/A   Clear
11:57 PM 54.0 °F - 48.9 °F 83% 29.88 in 10.0 mi WSW 5.8 mph - N/A   Clear